Weather History for Greenwood, SC

Change the Weather History Date:

Saturday, October 8, 2011

  Actual Average (KAND) Record (KAND)
Temperature  
Mean Temperature 62 °F -  
Max Temperature 77 °F 73 °F 87 °F (1990)
Min Temperature 50 °F 52 °F 35 °F (1987)
Degree Days  
Heating Degree Days 2    
Growing Degree Days 12 (Base 50)    
Moisture  
Dew Point 47 °F    
Average Humidity 62    
Maximum Humidity 86    
Minimum Humidity 36    
Precipitation  
Precipitation 0.00 in - - ()
Sea Level Pressure  
Sea Level Pressure 30.41 in    
Wind  
Wind Speed 5 mph (NE)    
Max Wind Speed 14 mph    
Max Gust Speed 22 mph    
Visibility 10 miles    
Events      
Averages and records for this station are not official NWS values.
T = Trace of Precipitation, MM = Missing Value Source: NWS Daily Summary

Daily Weather History Graph

Daily Weather History Graph

Search for Another Location

Airport:

Trip Planner

Search our weather history database for the weather conditions in past years. The results will help you decide how hot, cold, wet, or windy it might be!

Date:

Astronomy

Oct. 08, 2011 Rise Set
Actual Time 7:28 AM EDT 7:03 PM EDT
Civil Twilight 7:03 AM EDT 7:28 PM EDT
Nautical Twilight 6:34 AM EDT 7:57 PM EDT
Astronomical Twilight 6:04 AM EDT 8:26 PM EDT
Moon 5:07 PM EDT (10/8) 4:21 AM EDT (10/8)
Length of Visible Light 12h 25m
Length of Day
11h 35m
Waxing Gibbous, 90% of the Moon is Illuminated
Oct 8
Waxing Gibbous
Oct 11
Full
Oct 19
Last Quarter
Oct 26
New
Nov 2
First Quarter

Hourly Weather History & Observations

Time (EDT) Temp. Dew Point Humidity Pressure Visibility Wind Dir Wind Speed Gust Speed Precip Events Conditions
12:56 AM 53.1 °F 46.9 °F 80% 30.40 in 10.0 mi North 3.5 mph - N/A   Clear
1:56 AM 51.1 °F 46.0 °F 83% 30.41 in 10.0 mi Calm Calm - N/A   Clear
2:56 AM 50.0 °F 46.0 °F 86% 30.41 in 10.0 mi Calm Calm - N/A   Clear
3:56 AM 50.0 °F 46.0 °F 86% 30.41 in 10.0 mi NNE 3.5 mph - N/A   Clear
4:56 AM 50.0 °F 46.0 °F 86% 30.41 in 10.0 mi NNE 4.6 mph - N/A   Clear
5:56 AM 50.0 °F 46.0 °F 86% 30.41 in 10.0 mi NNE 4.6 mph - N/A   Clear
6:56 AM 50.0 °F 46.0 °F 86% 30.43 in 10.0 mi NNE 4.6 mph - N/A   Clear
7:56 AM 52.0 °F 46.9 °F 83% 30.44 in 10.0 mi NNE 5.8 mph - N/A   Clear
8:56 AM 57.0 °F 48.9 °F 74% 30.46 in 10.0 mi NNE 8.1 mph - N/A   Clear
9:56 AM 63.0 °F 51.1 °F 65% 30.47 in 10.0 mi NE 10.4 mph - N/A   Clear
10:56 AM 68.0 °F 52.0 °F 56% 30.46 in 10.0 mi NE 9.2 mph - N/A   Clear
11:56 AM 72.0 °F 52.0 °F 49% 30.45 in 10.0 mi NE 13.8 mph - N/A   Partly Cloudy
12:56 PM 73.9 °F 51.1 °F 45% 30.43 in 10.0 mi NE 13.8 mph 21.9 mph N/A   Partly Cloudy
1:56 PM 73.9 °F 50.0 °F 43% 30.41 in 10.0 mi ENE 8.1 mph 17.3 mph N/A   Clear
2:56 PM 75.9 °F 50.0 °F 40% 30.39 in 10.0 mi NNE 10.4 mph 17.3 mph N/A   Clear
4:56 PM 75.0 °F 46.0 °F 36% 30.34 in 10.0 mi Variable 6.9 mph - N/A   Clear
5:56 PM 73.0 °F 46.0 °F 38% 30.35 in 10.0 mi Variable 5.8 mph - N/A   Clear
6:56 PM 69.1 °F 46.0 °F 44% 30.36 in 10.0 mi ENE 4.6 mph - N/A   Clear
7:56 PM 66.9 °F 46.0 °F 47% 30.37 in 10.0 mi ENE 5.8 mph - N/A   Clear
8:56 PM 64.9 °F 46.0 °F 50% 30.38 in 10.0 mi ENE 4.6 mph - N/A   Clear
9:56 PM 64.0 °F 44.1 °F 48% 30.38 in 10.0 mi NE 4.6 mph - N/A   Clear
10:56 PM 63.0 °F 45.0 °F 52% 30.38 in 10.0 mi NNE 5.8 mph - N/A   Clear